Language: 


Des rapports , des résumés tant et plus, au choix de chacun....


Données statistiques de la station
Quotidien Rapport Janvier 21, 2017 Unités:  Anglais    Métrique   les deux
« Précédent Jour
Suivant Jour »
Quotidien Hebdomadaire Mensuel Annuel Actuel
  Haut: Bas: Moyen:
Température: 39.9 °F 23 °F 29.1 °F
Pt de rosée: 29.7 °F 18.3 °F 21.6 °F
Humidité: 90 % 0 % 74 %
Vitesse du vent: 6 mph 0 mph 2.9 mph
Rafales: 7.6 mph - -
Vent:- - ESE
Pression: 30.4 in 0 in -
Précipitation: 0 in    
Historical Graphs
 
 
Données statistiques pour Janvier 21, 2017
Heure Température Point de rosée Pression Vent Vitesse du vent Refales Humidité Pluie (taux horaire)
00:04 28.9 °F 20.1 °F 30.4 in ENE 3.4 mph 4.9 mph 69 % 0 in
00:09 28.8 °F 19.9 °F 30.4 in ENE 3.1 mph 4.3 mph 69 % 0 in
00:14 28.8 °F 19.9 °F 30.4 in ENE 3.6 mph 4.3 mph 69 % 0 in
00:19 28.6 °F 20.1 °F 30.4 in ENE 3.8 mph 4.3 mph 70 % 0 in
00:24 28.6 °F 20.1 °F 30.4 in ENE 4 mph 4.3 mph 70 % 0 in
00:25 28.6 °F 20.1 °F 30.4 in ENE 3.6 mph 4.3 mph 70 % 0 in
00:30 28.6 °F 20.1 °F 30.4 in ENE 4 mph 4.3 mph 70 % 0 in
00:35 28.6 °F 20.1 °F 30.4 in ENE 3.8 mph 4.5 mph 70 % 0 in
00:40 28.6 °F 20.1 °F 30.4 in ENE 4.9 mph 4.9 mph 70 % 0 in
00:45 28.6 °F 20.5 °F 30.4 in ENE 4.3 mph 4.9 mph 71 % 0 in
00:50 28.6 °F 20.5 °F 30.4 in ENE 4.9 mph 4.9 mph 71 % 0 in
00:55 28.6 °F 20.3 °F 30.4 in ENE 4.3 mph 5.4 mph 71 % 0 in
01:00 28.6 °F 20.7 °F 30.4 in ENE 4.3 mph 5.4 mph 72 % 0 in
01:05 28.6 °F 20.7 °F 30.4 in ENE 4 mph 4.3 mph 72 % 0 in
01:10 28.2 °F 20.5 °F 30.4 in NE 4.3 mph 5.4 mph 72 % 0 in
01:15 28.2 °F 20.5 °F 30.4 in NE 5.4 mph 5.4 mph 72 % 0 in
01:20 28.2 °F 20.5 °F 30.4 in NE 4.3 mph 5.6 mph 72 % 0 in
01:25 28.2 °F 20.7 °F 30.4 in NE 4.3 mph 5.6 mph 73 % 0 in
01:30 27.9 °F 20.1 °F 30.4 in NE 3.6 mph 5.4 mph 72 % 0 in
01:35 27.7 °F 20.1 °F 30.4 in NNE 3.8 mph 4.5 mph 73 % 0 in
01:40 27.3 °F 19.9 °F 30.4 in NNE 4.9 mph 4.9 mph 73 % 0 in
01:45 27.1 °F 19.9 °F 30.4 in NE 4.3 mph 5.4 mph 74 % 0 in
01:50 27.1 °F 20.1 °F 30.4 in NE 4.9 mph 5.4 mph 75 % 0 in
01:55 27.1 °F 20.1 °F 30.4 in NE 4.9 mph 6 mph 75 % 0 in
02:02 32 °F 20.1 °F 0 in NNE 3.6 mph 5.6 mph 0 % 0 in
02:07 27 °F 20.3 °F 30.4 in NNE 4 mph 5.4 mph 76 % 0 in
02:12 26.8 °F 20.1 °F 30.4 in NE 3.8 mph 5.4 mph 76 % 0 in
02:17 26.4 °F 19.9 °F 30.4 in NNE 3.4 mph 4.9 mph 76 % 0 in
02:22 26.4 °F 20.3 °F 30.4 in NE 3.8 mph 4.9 mph 77 % 0 in
02:27 26.4 °F 20.3 °F 30.4 in NNE 4.7 mph 4.9 mph 77 % 0 in
02:32 26.4 °F 20.1 °F 30.4 in NNE 4 mph 4.9 mph 77 % 0 in
02:37 26.4 °F 20.1 °F 30.4 in North 3.6 mph 4.9 mph 77 % 0 in
02:42 26.2 °F 19.9 °F 30.4 in NNE 3.1 mph 4.7 mph 77 % 0 in
02:47 26.2 °F 20.3 °F 30.4 in NNE 3.8 mph 4.7 mph 78 % 0 in
02:52 26.2 °F 20.3 °F 30.4 in North 3.8 mph 4.5 mph 78 % 0 in
02:57 26.4 °F 20.7 °F 30.4 in NE 3.4 mph 4.5 mph 79 % 0 in
03:02 26.2 °F 20.7 °F 30.4 in NNE 4.3 mph 4.9 mph 79 % 0 in
03:07 26.2 °F 20.7 °F 30.4 in NNE 4 mph 4.9 mph 79 % 0 in
03:12 26.1 °F 20.5 °F 30.4 in North 4.7 mph 4.7 mph 79 % 0 in
03:17 26.1 °F 20.5 °F 30.4 in North 4.3 mph 5.4 mph 79 % 0 in
03:22 26.1 °F 20.5 °F 30.4 in NNE 4 mph 5.6 mph 79 % 0 in
03:27 25.9 °F 20.1 °F 30.4 in NE 5.4 mph 5.6 mph 79 % 0 in
03:32 25.9 °F 20.1 °F 30.4 in NE 4.9 mph 5.6 mph 79 % 0 in
03:37 25.9 °F 20.5 °F 30.4 in NE 5.6 mph 6 mph 80 % 0 in
03:42 26.1 °F 20.7 °F 30.4 in NNE 4.3 mph 6 mph 80 % 0 in
03:47 26.1 °F 20.7 °F 30.4 in NE 4 mph 5.8 mph 80 % 0 in
03:52 26.1 °F 20.7 °F 30.4 in NE 5.6 mph 5.6 mph 80 % 0 in
03:57 26.1 °F 20.7 °F 30.4 in NE 5.4 mph 5.6 mph 80 % 0 in
04:02 25.9 °F 20.5 °F 30.4 in NNE 5.8 mph 5.8 mph 80 % 0 in
04:07 25.9 °F 20.5 °F 30.4 in NNE 4.9 mph 5.8 mph 80 % 0 in
04:12 25.5 °F 20.3 °F 30.4 in NE 4.3 mph 5.8 mph 80 % 0 in
04:17 25.5 °F 20.3 °F 30.4 in NE 4.3 mph 5.4 mph 80 % 0 in
04:22 25.5 °F 20.1 °F 30.4 in NNE 3.8 mph 5.4 mph 80 % 0 in
04:27 25.5 °F 20.5 °F 30.4 in North 3.6 mph 5.4 mph 81 % 0 in
04:32 25.5 °F 20.5 °F 30.4 in NE 3.6 mph 5.4 mph 81 % 0 in
04:37 25.5 °F 20.5 °F 30.4 in NNE 3.6 mph 4.7 mph 81 % 0 in
04:42 25.5 °F 20.5 °F 30.4 in NE 3.4 mph 4.7 mph 81 % 0 in
04:47 25.5 °F 20.7 °F 30.4 in NNE 3.1 mph 4.3 mph 82 % 0 in
04:53 25.5 °F 20.8 °F 30.4 in NNW 3.1 mph 4.9 mph 82 % 0 in
04:58 25.5 °F 20.8 °F 30.4 in North 3.1 mph 4.9 mph 82 % 0 in
05:03 25.5 °F 20.8 °F 30.4 in North 3.4 mph 4.3 mph 82 % 0 in
05:08 25.5 °F 20.8 °F 30.4 in NNE 4.3 mph 4.3 mph 82 % 0 in
05:13 25.5 °F 20.8 °F 30.4 in NNE 3.6 mph 4.9 mph 82 % 0 in
05:18 25.5 °F 20.7 °F 30.4 in NNE 3.6 mph 4.9 mph 82 % 0 in
05:23 25.5 °F 20.7 °F 30.3 in NNE 3.4 mph 4.7 mph 82 % 0 in
05:24 25.5 °F 20.7 °F 30.3 in NNE 3.6 mph 4.7 mph 82 % 0 in
05:29 25.3 °F 20.7 °F 30.3 in North 3.8 mph 4.9 mph 82 % 0 in
05:34 25.3 °F 20.8 °F 30.3 in NNE 4 mph 4.9 mph 83 % 0 in
05:39 25.3 °F 20.8 °F 30.3 in NNE 3.4 mph 4.9 mph 83 % 0 in
05:44 25.5 °F 21 °F 30.3 in NNE 4 mph 6.5 mph 83 % 0 in
05:49 25.3 °F 20.8 °F 30.3 in North 4.5 mph 6.5 mph 83 % 0 in
05:54 25.2 °F 20.7 °F 30.3 in NNE 4.3 mph 6 mph 83 % 0 in
05:59 25.2 °F 20.7 °F 30.3 in NNE 4.9 mph 6 mph 83 % 0 in
06:04 25.2 °F 20.7 °F 30.3 in NNE 3.1 mph 6.5 mph 83 % 0 in
06:09 25.2 °F 21 °F 30.3 in NNE 4 mph 6.5 mph 84 % 0 in
06:14 25 °F 20.8 °F 30.3 in NNE 4 mph 6 mph 84 % 0 in
06:19 25 °F 20.8 °F 30.3 in North 4 mph 5.6 mph 84 % 0 in
06:24 24.8 °F 20.7 °F 30.3 in NNE 4 mph 5.4 mph 84 % 0 in
06:29 24.8 °F 20.7 °F 30.3 in NE 4.3 mph 5.6 mph 84 % 0 in
06:34 24.6 °F 20.5 °F 30.3 in NNE 4.3 mph 5.6 mph 84 % 0 in
06:39 24.6 °F 20.5 °F 30.3 in NNE 4.3 mph 4.7 mph 84 % 0 in
06:44 24.6 °F 20.7 °F 30.3 in NE 4 mph 4.3 mph 85 % 0 in
06:49 24.8 °F 20.8 °F 30.3 in NNE 5.4 mph 5.6 mph 85 % 0 in
06:54 25 °F 21.4 °F 30.3 in NNE 4.9 mph 6 mph 86 % 0 in
06:59 25 °F 21.4 °F 30.3 in NNE 4.3 mph 6.3 mph 86 % 0 in
07:04 25 °F 21.4 °F 30.3 in NNE 4.3 mph 6.5 mph 86 % 0 in
07:09 24.8 °F 20.8 °F 30.3 in NNE 4.9 mph 6.5 mph 85 % 0 in
07:14 24.8 °F 20.8 °F 30.3 in NNE 4 mph 6.5 mph 85 % 0 in
07:19 24.8 °F 21.2 °F 30.3 in NNE 4 mph 5.8 mph 86 % 0 in
07:24 24.8 °F 21.2 °F 30.3 in North 4.3 mph 6.5 mph 86 % 0 in
07:29 24.8 °F 21.2 °F 30.3 in NNE 4 mph 6.5 mph 86 % 0 in
07:34 24.6 °F 21 °F 30.3 in North 4.9 mph 5.8 mph 86 % 0 in
07:39 24.6 °F 21 °F 30.3 in NNE 5.4 mph 5.8 mph 86 % 0 in
07:44 24.6 °F 21 °F 30.3 in NNE 4 mph 5.4 mph 86 % 0 in
07:49 24.4 °F 20.8 °F 30.3 in North 4.3 mph 4.7 mph 86 % 0 in
07:54 24.4 °F 20.8 °F 30.3 in North 3.8 mph 4.9 mph 86 % 0 in
07:59 24.3 °F 20.7 °F 30.3 in NNE 3.6 mph 4.9 mph 86 % 0 in
08:04 24.1 °F 20.1 °F 30.3 in NE 3.6 mph 4.3 mph 85 % 0 in
08:09 23.9 °F 19.9 °F 30.3 in North 2.9 mph 4.3 mph 85 % 0 in
08:14 23.7 °F 19.9 °F 30.3 in NNE 2.7 mph 4.3 mph 85 % 0 in
08:20 23.7 °F 20.1 °F 30.3 in NNE 3.8 mph 4.3 mph 86 % 0 in
08:25 23.7 °F 20.1 °F 30.3 in NNE 2.7 mph 4.3 mph 86 % 0 in
08:30 23.7 °F 20.1 °F 30.3 in North 3.8 mph 4.3 mph 86 % 0 in
08:35 23.7 °F 20.1 °F 30.3 in NNE 2.9 mph 4.3 mph 86 % 0 in
08:40 23.7 °F 20.5 °F 30.3 in NNE 3.1 mph 4 mph 87 % 0 in
08:45 23.7 °F 20.5 °F 30.3 in NNE 3.4 mph 3.8 mph 87 % 0 in
08:50 23.7 °F 20.5 °F 30.3 in NNE 3.6 mph 3.8 mph 87 % 0 in
08:55 23.7 °F 20.5 °F 30.4 in North 2.7 mph 4.3 mph 87 % 0 in
09:00 23.9 °F 20.7 °F 30.4 in North 3.6 mph 4.3 mph 87 % 0 in
09:05 24.1 °F 21 °F 30.4 in NNE 5.6 mph 5.6 mph 88 % 0 in
09:10 24.3 °F 21.2 °F 30.4 in North 4 mph 5.6 mph 88 % 0 in
09:15 24.3 °F 21.2 °F 30.4 in North 3.8 mph 4.9 mph 88 % 0 in
09:20 24.4 °F 21.4 °F 30.4 in North 3.8 mph 4.7 mph 88 % 0 in
09:25 24.4 °F 21.6 °F 30.4 in NNE 4.7 mph 4.7 mph 89 % 0 in
09:30 24.6 °F 21.7 °F 30.4 in NNE 3.4 mph 4.7 mph 89 % 0 in
09:35 25 °F 22.3 °F 30.4 in NE 2.7 mph 4.9 mph 89 % 0 in
09:40 25.3 °F 22.5 °F 30.3 in NE 3.4 mph 4.9 mph 89 % 0 in
09:45 25.5 °F 22.6 °F 30.3 in NE 2.9 mph 3.8 mph 89 % 0 in
09:50 26.1 °F 23.2 °F 30.3 in NE 3.1 mph 3.8 mph 89 % 0 in
09:55 26.4 °F 24.1 °F 30.4 in NNE 2.9 mph 4.7 mph 90 % 0 in
10:00 27.1 °F 24.3 °F 30.4 in NNE 3.8 mph 4.7 mph 89 % 0 in
10:05 27.3 °F 25 °F 30.4 in NE 2.5 mph 4.5 mph 90 % 0 in
10:10 27.9 °F 25.3 °F 30.4 in NE 2.5 mph 4 mph 90 % 0 in
10:15 28.6 °F 25.9 °F 30.4 in NE 2.9 mph 4 mph 90 % 0 in
10:20 29.1 °F 26.2 °F 30.4 in NE 3.4 mph 4.3 mph 89 % 0 in
10:25 29.5 °F 26.8 °F 30.4 in East 2 mph 4.3 mph 89 % 0 in
10:30 30.2 °F 27.3 °F 30.4 in NE 2 mph 4 mph 89 % 0 in
10:35 30.6 °F 27.5 °F 30.4 in NNE 3.1 mph 3.6 mph 88 % 0 in
10:40 30.9 °F 27.9 °F 30.4 in ENE 3.6 mph 4 mph 88 % 0 in
10:45 31.1 °F 28 °F 30.4 in NE 4.3 mph 4.7 mph 88 % 0 in
10:50 31.3 °F 27.9 °F 30.4 in NE 3.8 mph 4.9 mph 87 % 0 in
10:55 31.8 °F 28 °F 30.4 in ENE 4.3 mph 4.9 mph 86 % 0 in
11:00 31.8 °F 28 °F 30.4 in East 3.4 mph 4.9 mph 86 % 0 in
11:05 32.5 °F 28.6 °F 30.4 in ENE 3.8 mph 4.9 mph 85 % 0 in
11:10 32.9 °F 28.6 °F 30.4 in East 3.4 mph 4.7 mph 84 % 0 in
11:15 33.3 °F 28.9 °F 30.4 in NE 2.9 mph 4.7 mph 84 % 0 in
11:20 33.4 °F 28.8 °F 30.4 in NE 3.8 mph 3.8 mph 83 % 0 in
11:25 33.8 °F 28.6 °F 30.3 in East 3.1 mph 3.8 mph 81 % 0 in
11:30 34.2 °F 28.9 °F 30.3 in East 3.1 mph 3.8 mph 81 % 0 in
11:35 34.3 °F 28.8 °F 30.3 in East 2.9 mph 3.6 mph 80 % 0 in
11:40 34.9 °F 28.8 °F 30.3 in ESE 2.7 mph 3.4 mph 78 % 0 in
11:45 35.2 °F 28.9 °F 30.3 in ESE 2.7 mph 3.6 mph 78 % 0 in
11:50 35.4 °F 28 °F 30.3 in ESE 3.4 mph 4 mph 74 % 0 in
11:55 35.8 °F 28.2 °F 30.3 in SSE 2.9 mph 4.3 mph 74 % 0 in
12:00 36.7 °F 29.7 °F 30.3 in SSE 0.9 mph 4.3 mph 76 % 0 in
12:05 36.9 °F 29.5 °F 30.3 in SSW 4 mph 6.5 mph 74 % 0 in
12:10 37.6 °F 28.9 °F 30.3 in South 4.3 mph 6.5 mph 71 % 0 in
12:15 37.8 °F 28.6 °F 30.3 in SSE 5.8 mph 7.6 mph 69 % 0 in
12:20 37.9 °F 26.4 °F 30.3 in SSW 2 mph 7.6 mph 63 % 0 in
12:25 37.9 °F 26.4 °F 30.3 in SSE 2.7 mph 6.5 mph 63 % 0 in
12:30 37.9 °F 26.4 °F 30.3 in SSE 3.1 mph 6.5 mph 63 % 0 in
12:35 37.9 °F 26.4 °F 30.3 in SSW 3.1 mph 6.3 mph 63 % 0 in
12:40 37.9 °F 26.4 °F 30.3 in South 2.7 mph 6 mph 63 % 0 in
12:45 38.7 °F 25.5 °F 30.3 in SSW 5.4 mph 6 mph 59 % 0 in
12:50 38.7 °F 25.5 °F 30.3 in South 5.6 mph 6.5 mph 59 % 0 in
12:55 38.7 °F 25.2 °F 30.3 in South 4 mph 6.5 mph 58 % 0 in
13:00 38.8 °F 25 °F 30.3 in SSE 4.9 mph 6 mph 57 % 0 in
13:05 38.8 °F 25 °F 30.3 in South 5.8 mph 5.8 mph 57 % 0 in
13:10 38.8 °F 24.4 °F 30.3 in South 4 mph 5.8 mph 56 % 0 in
13:15 39 °F 24.6 °F 30.3 in South 4.3 mph 5.4 mph 56 % 0 in
13:20 39.2 °F 24.4 °F 30.3 in SSE 6 mph 6.3 mph 55 % 0 in
13:25 39.2 °F 24.4 °F 30.3 in SSW 5.6 mph 6.3 mph 55 % 0 in
13:30 39 °F 24.3 °F 30.3 in South 6 mph 6.5 mph 55 % 0 in
13:35 39 °F 23.7 °F 30.3 in South 3.4 mph 6.5 mph 54 % 0 in
13:40 39.2 °F 24.1 °F 30.3 in SSW 3.4 mph 5.4 mph 54 % 0 in
13:45 39.2 °F 23.5 °F 30.3 in South 3.8 mph 7.4 mph 53 % 0 in
13:50 39.2 °F 24.1 °F 30.3 in SSE 2.9 mph 7.4 mph 54 % 0 in
13:55 39.2 °F 24.1 °F 30.3 in SSW 3.1 mph 6 mph 54 % 0 in
14:00 39.2 °F 23.5 °F 30.3 in SSW 4 mph 6 mph 53 % 0 in
14:05 39.4 °F 23.7 °F 30.3 in SSE 3.4 mph 6 mph 53 % 0 in
14:10 39.6 °F 24.3 °F 30.3 in South 2.7 mph 6 mph 54 % 0 in
14:15 39.6 °F 23.7 °F 30.3 in SSE 5.4 mph 6 mph 53 % 0 in
14:20 39.2 °F 23.5 °F 30.3 in SSW 1.3 mph 5.4 mph 53 % 0 in
14:25 39.6 °F 24.3 °F 30.3 in SSE 2 mph 5.4 mph 54 % 0 in
14:30 39.7 °F 24.1 °F 30.3 in SSE 3.4 mph 4.9 mph 53 % 0 in
14:35 39.9 °F 24.3 °F 30.3 in South 2.5 mph 4.9 mph 53 % 0 in
14:40 39.7 °F 24.1 °F 30.3 in SSE 4.9 mph 4.9 mph 53 % 0 in
14:45 39.6 °F 23.4 °F 30.3 in South 2.7 mph 4.9 mph 52 % 0 in
14:50 39.6 °F 23.4 °F 30.3 in SSE 2.5 mph 4.9 mph 52 % 0 in
14:55 39.7 °F 23.5 °F 30.3 in SE 4.7 mph 4.7 mph 52 % 0 in
15:00 39.6 °F 23.4 °F 30.3 in SE 4.3 mph 4.9 mph 52 % 0 in
15:05 39.6 °F 23.4 °F 30.3 in SSE 3.8 mph 4.9 mph 52 % 0 in
15:10 39.4 °F 23.2 °F 30.3 in ESE 2 mph 4.7 mph 52 % 0 in
15:15 39.4 °F 23.2 °F 30.3 in SSE 4.3 mph 5.6 mph 52 % 0 in
15:20 39 °F 22.8 °F 30.3 in SSE 4 mph 5.6 mph 52 % 0 in
15:25 38.7 °F 22.6 °F 30.3 in SSE 3.1 mph 5.6 mph 52 % 0 in
15:30 38.8 °F 23.2 °F 30.3 in South 3.4 mph 4 mph 53 % 0 in
15:35 39 °F 22.8 °F 30.3 in South 2.9 mph 4 mph 52 % 0 in
15:40 38.8 °F 23.2 °F 30.3 in SE 3.1 mph 5.8 mph 53 % 0 in
15:45 38.7 °F 23 °F 30.3 in SSE 3.6 mph 5.8 mph 53 % 0 in
15:50 38.5 °F 22.3 °F 30.3 in SE 4 mph 5.8 mph 52 % 0 in
15:55 38.5 °F 22.6 °F 30.3 in SSE 4.7 mph 5.8 mph 53 % 0 in
16:00 38.5 °F 22.6 °F 30.3 in SSE 2.7 mph 5.6 mph 53 % 0 in
16:05 38.5 °F 22.6 °F 30.3 in SSE 3.6 mph 4 mph 53 % 0 in
16:10 38.1 °F 22.5 °F 30.3 in South 2.5 mph 4.3 mph 53 % 0 in
16:15 37.9 °F 22.5 °F 30.3 in SSE 3.8 mph 4.7 mph 53 % 0 in
16:20 37.8 °F 22.3 °F 30.3 in South 1.6 mph 5.4 mph 53 % 0 in
16:25 37.2 °F 21.7 °F 30.3 in SSE 2.9 mph 5.4 mph 53 % 0 in
16:30 36.7 °F 21 °F 30.3 in SSE 3.6 mph 3.8 mph 53 % 0 in
16:35 36.1 °F 21 °F 30.3 in South 2.5 mph 3.6 mph 54 % 0 in
16:40 35.8 °F 20.7 °F 30.3 in South 2 mph 3.6 mph 54 % 0 in
16:45 35.2 °F 20.7 °F 30.3 in South 1.6 mph 3.4 mph 55 % 0 in
16:50 34.9 °F 20.7 °F 30.3 in South 1.3 mph 2.5 mph 56 % 0 in
16:55 34.3 °F 20.1 °F 30.3 in SSE 2.5 mph 2.5 mph 56 % 0 in
17:00 33.8 °F 19.8 °F 30.3 in SSE 1.6 mph 3.1 mph 56 % 0 in
17:05 33.3 °F 19.6 °F 30.3 in SSE 1.1 mph 3.1 mph 57 % 0 in
17:10 32.7 °F 19.6 °F 30.3 in SSE 1.1 mph 2.7 mph 58 % 0 in
17:15 32.4 °F 19.2 °F 30.3 in SSE 2.9 mph 2.9 mph 58 % 0 in
17:20 31.8 °F 19 °F 30.3 in SSE 1.6 mph 2.9 mph 59 % 0 in
17:25 31.5 °F 19.2 °F 30.3 in SE 2.5 mph 3.4 mph 60 % 0 in
17:30 31.1 °F 19.2 °F 30.3 in ESE 1.1 mph 3.4 mph 61 % 0 in
17:35 30.7 °F 18.9 °F 30.3 in SE 0.9 mph 2.7 mph 61 % 0 in
17:40 30.2 °F 18.9 °F 30.3 in Calm   2 mph 62 % 0 in
17:45 29.7 °F 18.3 °F 30.3 in Calm   1.6 mph 62 % 0 in
17:50 29.5 °F 18.3 °F 30.3 in Calm   1.6 mph 63 % 0 in
17:55 28.9 °F 18.3 °F 30.3 in Calm     64 % 0 in
18:00 28.9 °F 18.7 °F 30.3 in Calm   2.7 mph 65 % 0 in
18:05 28.8 °F 18.9 °F 30.3 in East 1.1 mph 2.7 mph 66 % 0 in
18:10 28.6 °F 19 °F 30.3 in NE 1.6 mph 2 mph 67 % 0 in
18:15 28.6 °F 19.4 °F 30.3 in East 1.6 mph 2 mph 68 % 0 in
18:20 28.6 °F 19.6 °F 30.3 in Calm   2.5 mph 69 % 0 in
18:25 28 °F 19.2 °F 30.3 in Calm   2.5 mph 69 % 0 in
18:30 28 °F 19.6 °F 30.3 in NE 1.1 mph 2 mph 70 % 0 in
18:35 28 °F 19.6 °F 30.3 in ENE 2.2 mph 2.2 mph 70 % 0 in
18:40 27.9 °F 19.8 °F 30.3 in NE 2.5 mph 2.7 mph 71 % 0 in
18:45 27.9 °F 19.6 °F 30.3 in ENE 2 mph 2.7 mph 71 % 0 in
18:50 27.7 °F 19.8 °F 30.3 in ENE 0.9 mph 2.5 mph 72 % 0 in
18:55 27.1 °F 19.4 °F 30.3 in Calm   2 mph 72 % 0 in
19:00 27.1 °F 19.2 °F 30.3 in Calm   0.9 mph 72 % 0 in
19:05 26.8 °F 19.2 °F 30.3 in Calm     73 % 0 in
19:10 26.4 °F 19 °F 30.3 in Calm     73 % 0 in
19:15 26.4 °F 19.2 °F 30.3 in ENE 1.1 mph 1.1 mph 74 % 0 in
19:20 26.4 °F 19.2 °F 30.3 in Calm   2 mph 74 % 0 in
19:25 26.2 °F 19.2 °F 30.3 in Calm   2 mph 75 % 0 in
19:30 26.2 °F 19.2 °F 30.3 in ENE 0.9 mph 1.3 mph 75 % 0 in
19:35 26.1 °F 19.2 °F 30.3 in Calm   1.3 mph 75 % 0 in
19:40 26.1 °F 19.6 °F 30.3 in Calm     76 % 0 in
19:45 25.9 °F 19.2 °F 30.3 in Calm     76 % 0 in
19:50 25.5 °F 19 °F 30.3 in Calm     76 % 0 in
19:55 25.2 °F 18.7 °F 30.3 in Calm     76 % 0 in
20:00 25.3 °F 18.9 °F 30.3 in Calm     76 % 0 in
20:05 25.5 °F 19.2 °F 30.3 in Calm     77 % 0 in
20:10 25.9 °F 19.6 °F 30.3 in Calm     77 % 0 in
20:15 25.9 °F 19.9 °F 30.3 in Calm     78 % 0 in
20:20 26.1 °F 20.1 °F 30.3 in Calm     78 % 0 in
20:25 25.9 °F 20.1 °F 30.3 in Calm     79 % 0 in
20:30 25.5 °F 19.6 °F 30.3 in Calm     78 % 0 in
20:35 25.3 °F 19.4 °F 30.3 in Calm     78 % 0 in
20:40 25.2 °F 19.2 °F 30.3 in Calm     78 % 0 in
20:45 25 °F 19.4 °F 30.3 in Calm     79 % 0 in
20:46 25 °F 19.4 °F 30.3 in Calm     79 % 0 in
20:51 25 °F 19.4 °F 30.3 in Calm     79 % 0 in
20:56 25.2 °F 19.6 °F 30.3 in Calm     79 % 0 in
21:01 25 °F 19.6 °F 30.3 in North 2 mph 2.2 mph 80 % 0 in
21:06 25 °F 19.6 °F 30.3 in Calm   2.2 mph 80 % 0 in
21:11 24.8 °F 19.6 °F 30.3 in Calm   1.3 mph 80 % 0 in
21:16 24.6 °F 19.2 °F 30.3 in Calm     80 % 0 in
21:21 24.4 °F 19 °F 30.3 in Calm     80 % 0 in
21:26 24.1 °F 18.9 °F 30.3 in Calm     80 % 0 in
21:31 24.1 °F 18.9 °F 30.3 in Calm     80 % 0 in
21:36 23.9 °F 18.9 °F 30.3 in Calm   1.6 mph 81 % 0 in
21:41 24.1 °F 19 °F 30.3 in North 1.3 mph 1.6 mph 81 % 0 in
21:46 24.3 °F 19.2 °F 30.3 in North 1.1 mph 2 mph 81 % 0 in
21:51 24.3 °F 19.6 °F 30.3 in North 1.1 mph 2 mph 82 % 0 in
21:56 24.3 °F 19.6 °F 30.3 in North 2 mph 2.2 mph 82 % 0 in
22:01 24.6 °F 20.1 °F 30.3 in NNE 2 mph 2.5 mph 83 % 0 in
22:06 25 °F 20.8 °F 30.3 in NNE 1.6 mph 2.5 mph 84 % 0 in
22:11 25.2 °F 21 °F 30.3 in North 2.2 mph 2.7 mph 84 % 0 in
22:16 25.2 °F 21 °F 30.3 in North 1.6 mph 2.7 mph 84 % 0 in
22:21 25 °F 20.8 °F 30.3 in NNE 1.3 mph 2.2 mph 84 % 0 in
22:26 24.8 °F 20.7 °F 30.3 in NE 2.7 mph 2.7 mph 84 % 0 in
22:31 24.8 °F 20.7 °F 30.3 in NNE 2.5 mph 2.9 mph 84 % 0 in
22:36 24.8 °F 20.7 °F 30.3 in North 1.3 mph 2.9 mph 84 % 0 in
22:41 25 °F 21 °F 30.3 in North 1.1 mph 2.9 mph 85 % 0 in
22:46 24.8 °F 20.7 °F 30.3 in Calm   2.2 mph 84 % 0 in
22:51 24.4 °F 20.3 °F 30.3 in Calm   2.2 mph 84 % 0 in
22:56 23.9 °F 19.6 °F 30.3 in Calm     83 % 0 in
23:01 23.7 °F 19.2 °F 30.3 in Calm     83 % 0 in
23:06 23.5 °F 19.4 °F 30.3 in NE 1.3 mph 2.2 mph 84 % 0 in
23:11 23.7 °F 19.6 °F 30.3 in NE 2.5 mph 2.7 mph 84 % 0 in
23:16 23.7 °F 19.9 °F 30.3 in NNE 1.6 mph 2.7 mph 85 % 0 in
23:21 23.7 °F 19.9 °F 30.3 in NE 2.7 mph 2.7 mph 85 % 0 in
23:26 23.9 °F 19.9 °F 30.3 in ENE 2 mph 2.7 mph 85 % 0 in
23:31 23.7 °F 20.1 °F 30.3 in Calm   2.7 mph 86 % 0 in
23:36 23.5 °F 19.8 °F 30.3 in Calm   2 mph 85 % 0 in
23:41 23.4 °F 19.6 °F 30.3 in Calm     85 % 0 in
23:46 23.2 °F 19.6 °F 30.3 in Calm     86 % 0 in
23:51 23 °F 19.4 °F 30.3 in Calm     86 % 0 in
23:56 23 °F 19.4 °F 30.3 in Calm   1.3 mph 86 % 0 in
Le Gheer Warneton
Courtoisie de Weather Underground - 2.25 mb

Mise a jour : 16-12-17 12:12:11
Généré par Cumulus 1.9.4 (1099)